Regional Weather Roundup
Issued by NWS Newport/Morehead, NC

Current Version | Previous Version | Graphics & Text | Print | Product List | Glossary On
Versions: 1 2 3 4 5 6 7 8 9 10 11 12 13 14 15 16 17 18 19 20 21 22 23 24 25 26 27 28 29 30 31 32 33 34 35 36 37 38 39 40 41 42 43 44 45 46 47 48 49 50
000 ASUS42 KMHX 270925 RWRMHX WEATHER ROUNDUP FOR EASTERN NORTH CAROLINA NATIONAL WEATHER SERVICE NEWPORT/MOREHEAD CITY NC 500 AM EDT SAT MAY 27 2017 NOTE: "FAIR" INDICATES FEW OR NO CLOUDS BELOW 12,000 FEET WITH NO SIGNIFICANT WEATHER AND/OR OBSTRUCTIONS TO VISIBILITY NCZ015>017-031-032-045>047-102-103-271000- NORTH COAST CITY SKY/WX TMP DP RH WIND PRES REMARKS EDENTON CLEAR 70 61 74 CALM 29.94S ELIZABETH CITY CLEAR 63 60 90 SW7 29.92S KITTY HAWK SUNNY 68 60 76 CALM 29.92R MANTEO CLEAR 68 61 78 W6 29.94R $$ NCZ045>047-081-094-103-104-271000- CENTRAL COAST CITY SKY/WX TMP DP RH WIND PRES REMARKS FRISCO CLEAR 71 67 87 W6 29.94S $$ NCZ095-097-098-100-101-271000- SOUTHERN COAST CITY SKY/WX TMP DP RH WIND PRES REMARKS BEAUFORT CLEAR 71 65 81 W5 29.95S CEDAR ISLAND NOT AVBL JACKSONVILLE CLEAR 62 61 96 W5 29.96S PINEY ISLAND SUNNY N/A N/A N/A SW7 29.94S WILMINGTON CLEAR 63 61 93 CALM 29.97S $$ NCZ011>013-027>030-043-044-078>080-089-090>093-098-271000- COASTAL PLAIN CITY SKY/WX TMP DP RH WIND PRES REMARKS AHOSKIE NOT AVBL CLINTON CLEAR 60 59 96 CALM 29.97S ELIZABETHTOWN CLEAR 63 58 83 CALM 29.97S GOLDSBORO NOT AVBL GREENVILLE CLEAR 63 59 88 CALM 29.97R HAVELOCK CLEAR 63 59 87 SW3 29.96S KENANSVILLE CLEAR 57 57 100 CALM 29.96S KINSTON CLEAR 62 58 86 CALM 29.96S NEW BERN CLEAR 63 60 90 SW5 29.97S RICHLANDS CLEAR 59 58 96 S3 29.97S ROCKY MOUNT CLEAR 62 59 90 S5 29.94S WASHINGTON CLEAR 63 58 84 CALM 29.95S WHITEVILLE CLEAR 62 58 90 CALM 29.97S $$ AMZ130-135-150-152-154-156-158-170-250-252-270-ANZ085-086-088-633-658-670-271000- MARINE OBSERVATIONS STATION/POSITION TIME TEMP WIND PRES WAVE SWELL AIR SEA DIR/SP/G HT/PER HT/PER (UTC) (F) (DEG/KT/KT) (MB) (FT/S) (FT/S) CHESAPEAKE LIGHT NOT AVBL 64 E VA BEACH 0850 65 62 230/ 4/ 6 1013.8 3/ 7 3/ 7 DUCK 0900 71 63 240/ 6/ 7 1012.8 2 E DUCK 0900 63 N/A 1/ 8 OREGON INLET 0900 71 67 230/ 10/ 11 1013.4 13E OREGON INLT 0848 66 N/A 3/ 7 2/ 7 HATTERAS CG 0900 71 73 230/ 5/ 7 1013.6 DIAMOND BUOY 0850 75 77 250/ 12/ 12 1013.8 5/ 7 5/ 7 CAPE LOOKOUT 0900 72 260/ 7/ 9 1014.1 BEAUFORT LAB 0900 71 71 270/ 3/ 8 1013.5 30 SE NEW RVR IN 0908 75 78 270/ 12/ 16 1014.8 30 SE NEW RVR IN 0913 78 N/A 4/ 6 27 SE WRIGHTSVLE 0908 74 76 240/ 12/ 16 1014.3 5 SE WRIGHTSVLE 0908 73 74 250/ 10/ 14 1014.8 225 S CAPE HAT 0850 75 77 270/ 10/ 12 1016.0 4/ 6 3/ 6 41 SE CHARLESTON 0910 74 74 240/ 10/ 12 1015.6 $$

USA.gov is the U.S. government's official web portal to all federal, state and local government web resources and services.